#timestamp,LO_Frequency,Hit,StdDev 
1561698015.8,286047000.7,N
1561698035.6,286046998.9,N
1561698055.5,286046998.3,N
1561698075.3,286046998.4,N
1561698095.1,286046999.5,N
1561698115.9,286046996.7,N
1561698135.7,286046997.2,N
1561698155.6,286046997.5,N
1561698175.4,286046996.5,N
1561698195.2,286046995.7,N
1561698215.1,286046995.2,N
1561698216.0,286046995.2,N
1561698235.8,286046995.7,N
1561698255.6,286046996.0,N
1561698275.5,286046995.3,N
1561698295.3,286046996.8,N
1561698315.2,286046999.0,N
1561698335.9,286046998.9,N
1561698355.7,286046998.3,N
1561698375.6,286046998.9,N
1561698395.4,286046999.2,N
1561698415.2,286046997.8,N
1561698435.1,286046996.8,N
1561698436.0,286046996.8,N
1561698455.8,286046995.1,N
1561698475.7,286046996.4,N
1561698495.5,286046993.8,Y
1561698515.3,286046996.2,P
1561698535.2,286046993.7,P
1561698555.0,286046992.9,P
1561698555.9,286046986.3,Y
1561698575.8,286046995.8,P
1561698595.6,286046993.5,P
1561698615.4,286046996.4,P
1561698635.3,286046993.5,Y
1561698655.1,286046998.4,P
1561698675.9,286047000.2,N
1561698695.7,286047000.7,N
1561698715.5,286047002.0,N
1561698735.4,286047002.3,N
1561698755.2,286047000.3,N
1561698775.0,286046998.5,N
1561698775.9,286046998.5,N
1561698795.8,286047000.7,N
1561698815.6,286047000.1,N
1561698835.5,286046999.9,N
1561698855.3,286046998.7,N
1561698875.1,286046998.7,N
1561698895.9,286046998.4,N
1561698915.7,286047000.2,N
1561698935.5,286047000.5,N
1561698955.4,286046999.5,N
1561698975.2,286046997.8,N
1561698995.1,286046996.5,N
1561698996.0,286046996.5,N
1561699015.8,286046997.0,N
1561699035.6,286046994.9,N
1561699055.5,286046997.2,N
1561699075.3,286046994.9,N
1561699095.1,286046996.7,N
1561699115.9,286046999.4,N
1561699135.7,286046999.0,N
1561699155.6,286046997.0,N
1561699175.4,286046996.7,N
1561699195.2,286046997.1,N
1561699215.1,286046999.6,N
1561699216.0,286046999.6,N
1561699235.8,286046995.1,N
1561699255.6,286046997.7,N
1561699275.5,286046996.7,N
1561699295.3,286046997.0,N
1561699315.2,286046998.3,N
1561699335.9,286047001.0,N
1561699355.7,286047001.0,N
1561699375.6,286046998.2,N
1561699395.4,286046998.1,N
1561699415.2,286047000.4,N
1561699435.1,286047000.9,N
1561699436.0,286047000.9,N
1561699455.8,286046998.7,N
1561699475.7,286046997.2,N
1561699495.5,286046998.0,N
1561699515.3,286046991.7,Y
1561699535.2,286046995.5,P
1561699555.0,286046996.0,P
1561699555.9,286046996.0,P
1561699575.8,286046996.0,Y
1561699595.6,286046998.7,P
1561699615.4,286047001.2,N
1561699635.3,286047001.2,N
1561699655.1,286047001.2,N
1561699675.8,286046998.8,N
1561699695.7,286046999.3,N
1561699715.5,286046999.0,N
1561699735.4,286046998.9,N
1561699755.2,286046999.3,N
1561699775.0,286047000.2,N
1561699775.9,286047000.2,N
1561699795.8,286046998.6,N
1561699815.6,286046998.2,N
1561699835.4,286047001.1,N
1561699855.3,286047000.2,N
1561699875.1,286047002.8,N
1561699895.9,286047002.7,N
1561699915.7,286047000.1,N
1561699935.5,286047000.6,N
1561699955.4,286046998.7,N
1561699975.2,286047002.4,N
1561699995.0,286047002.6,N
1561699995.9,286047002.6,N
1561700015.8,286047000.4,N
1561700035.6,286047002.4,N
1561700055.5,286047002.7,N
1561700075.3,286047002.8,N
1561700095.1,286047000.1,N
1561700115.9,286047000.9,N
1561700135.7,286046999.9,N
1561700155.5,286047002.2,N
1561700175.4,286046999.9,N
1561700195.2,286047001.3,N
1561700215.1,286047002.0,N
1561700216.0,286047002.0,N
1561700235.8,286047003.8,N
1561700255.6,286047005.7,Y
1561700275.5,286047005.9,P
1561700295.3,286047005.9,N
1561700315.1,286047004.5,N
1561700335.9,286047007.2,Y
1561700355.7,286047000.3,P
1561700375.6,286047001.0,N
1561700395.4,286047000.8,N
1561700415.2,286047000.4,N
1561700435.1,286046998.9,N
1561700436.0,286046998.9,N
1561700455.8,286046997.2,N
1561700475.6,286046997.7,N
1561700495.5,286046993.7,Y
1561700515.3,286046994.1,P
1561700535.2,286046994.6,N
1561700555.9,286046993.4,N
1561700575.7,286046995.9,N
1561700595.6,286046994.5,N
1561700615.4,286046993.5,Y
1561700635.3,286046999.3,P
1561700655.1,286047000.7,N
1561700656.0,286047000.7,N
1561700675.8,286047001.1,N
1561700695.7,286047001.2,N
1561700715.5,286046999.4,N
1561700735.3,286046995.0,N
1561700755.2,286046998.8,N
1561700775.0,286046999.4,N
1561700775.9,286046999.4,N
1561700795.8,286047001.2,N
1561700815.6,286047002.8,N
1561700835.4,286047003.6,N
1561700855.3,286047002.9,N
1561700875.1,286047003.3,N
1561700895.8,286047005.4,N
1561700915.7,286047004.0,N
1561700935.5,286047000.0,N
1561700955.4,286046998.4,N
1561700975.2,286046996.7,N
1561700995.0,286046997.7,N
1561700995.9,286046997.7,N
1561701015.8,286046995.9,N
1561701035.6,286046995.0,N
1561701055.4,286046994.2,N
1561701075.3,286046994.2,N
1561701095.1,286046994.2,N
1561701115.8,286046994.2,N
1561701135.7,286046992.4,N
1561701155.5,286046994.8,N
1561701175.4,286046993.6,N
1561701195.2,286046993.6,N
1561701215.0,286046993.3,N
1561701215.9,286046993.3,N
1561701235.8,286046995.7,N
1561701255.6,286046995.5,N
1561701275.4,286046997.7,N
1561701295.3,286046997.8,N
1561701315.1,286046998.0,N
1561701335.9,286046995.2,N
1561701355.7,286046995.8,N
1561701375.5,286046997.3,N
1561701395.4,286046996.4,N
1561701415.2,286046993.3,N
1561701435.0,286046994.6,N
1561701436.0,286046994.6,N
1561701455.8,286046993.3,N
1561701475.6,286046996.4,N
1561701495.5,286046997.6,N
1561701515.3,286046996.4,N
1561701535.1,286046994.4,Y
1561701555.9,286046999.5,P
1561701575.7,286046995.4,N
1561701595.6,286046997.2,N
